Content
SEND FEEDBACK

Daily
Averages
Monthly
Summary
United States of America

DEWITT, MICHIGAN


Home > North America > United States > Michigan
Elevation: 840 feet     Latitude: 42 48N     Longitude: 084 36W

WEATHER
 
SELECT A DAY
Number of Records: 204,886;   Date Range: 1/1/95 - 7/22/14
 
SHARE

PRINT THIS DATA

[ ← Previous Day ]
WEATHER ALMANAC - FEBRUARY 13, 2013
[ Next Day → ]
[ °C ]   °F
Weather ElementAverageHighLow
Temperature29.8 °F39 °F (3:53 pm)24.1 °F (7:53 am)
Dewpoint21.8 °F25 °F (1:53 pm)19 °F (7:53 am)
Humidity72.6 %81 % (5:53 am)55 % (3:53 pm)
Barometer29.82 in29.94 in (1:53 am)29.74 in (3:53 pm)
Wind Speed6.1 mph11.5 mph (3:53 am)
Wind Gust17.3 mph (2:53 pm)
Weather ElementAverage
Visibility8.8 mi
Wind DirectionSSE (172.1 °)

Weather ElementTotal
Precipitation---
Heating Degree Days33.5 (Base 65)
Averaged from 28 records on February 13, 2013
WEATHER CONDITIONS BREAKOUT
WIND DIRECTION BREAKOUT
WEATHER BY HOUR - FEBRUARY 13, 2013
[ °C ]   °F
Local TimeTemperatureDewpointHumidityBarometerVisibilityWind DirectionWind SpeedGust SpeedPrecipitationEventsConditions
1:53 AM27.0 °F19.9 °F75 %29.94 in10.0 miWest (260°)9.2 mphOvercast
2:53 AM27.0 °F19.9 °F75 %29.92 in10.0 miWest (260°)10.4 mphOvercast
3:53 AM27.0 °F19.9 °F75 %29.91 in10.0 miWest (280°)11.5 mphOvercast
4:00 AM26.6 °F19.4 °F74 %29.87 in10.0 miWest (280°)8.1 mphOvercast
4:53 AM26.1 °F19.9 °F78 %29.89 in10.0 miWest (280°)8.1 mphOvercast
5:53 AM26.1 °F21.0 °F81 %29.88 in10.0 miCalmOvercast
6:53 AM26.1 °F19.9 °F78 %29.87 in10.0 miSouth (180°)6.9 mphOvercast
7:53 AM24.1 °F19.0 °F81 %29.85 in7.0 miSouth (180°)6.9 mphScattered Clouds
8:02 AM24.8 °F19.4 °F80 %29.81 in7.0 miSouth (180°)5.8 mphMostly Cloudy
8:15 AM24.8 °F19.4 °F80 %29.81 in7.0 miSouth (180°)4.6 mphScattered Clouds
8:53 AM26.1 °F21.0 °F81 %29.84 in7.0 miSouth (170°)5.8 mphMostly Cloudy
9:49 AM26.6 °F19.4 °F74 %29.81 in8.0 miSW (220°)6.9 mphOvercast
9:53 AM27.0 °F21.0 °F78 %29.84 in8.0 miSSW (200°)5.8 mphOvercast
10:53 AM28.9 °F21.9 °F75 %29.83 in8.0 miSSW (210°)6.9 mphOvercast
11:53 AM30.9 °F23.0 °F72 %29.83 in8.0 miSW (220°)8.1 mphOvercast
12:19 PM32.0 °F23.0 °F69 %29.79 in9.0 miSouth (180°)10.4 mphScattered Clouds
12:53 PM34.0 °F24.1 °F67 %29.80 in9.0 miSouth (180°)10.4 mphClear
1:53 PM37.0 °F25.0 °F62 %29.77 in10.0 miWSW (240°)10.4 mphClear
2:53 PM37.9 °F25.0 °F60 %29.75 in10.0 miSW (220°)8.1 mph17.3 mphClear
3:53 PM39.0 °F24.1 °F55 %29.74 in10.0 miWSW (240°)9.2 mphClear
4:53 PM39.0 °F24.1 °F55 %29.75 in10.0 miWSW (250°)5.8 mphMostly Cloudy
5:53 PM37.9 °F24.1 °F57 %29.75 in10.0 miWSW (240°)8.1 mphClear
6:53 PM35.1 °F23.0 °F61 %29.77 in10.0 miCalmClear
7:53 PM30.0 °F24.1 °F79 %29.78 in8.0 miSouth (170°)3.5 mphClear
8:53 PM28.9 °F23.0 °F78 %29.78 in8.0 miCalmClear
9:53 PM28.0 °F21.9 °F78 %29.78 in7.0 miCalmClear
10:53 PM28.0 °F21.9 °F78 %29.78 in7.0 miCalmClear
11:53 PM28.9 °F23.0 °F78 %29.77 in8.0 miCalmClear
Hourly data recorded from KLAN, located miles away from Dewitt, Michigan







STORIES FROM OUR PARTNERS